Location: Zagreb
(45.8000°N, 16.0000°E)
Time: 18:09:48
(UTC+02:00)

SR - Pass Details

Date: 15 August 2020
Orbit: 583 x 873 km, 66.7° (Epoch: 28 September)

Event Time Altitude Azimuth Distance (km) Brightness Sun altitude
Rises 23:20:45 0° 271° (W) 2,884 ? -26.4°
Reaches altitude 10° 23:24:27 10° 303° (WNW) 1,941 ? -26.7°
Maximum altitude 23:26:10 12° 326° (NW) 1,796 ? -26.8°
Drops below altitude 10° 23:27:52 10° 350° (N) 1,920 ? -27.0°
Sets 23:31:29 0° 22° (NNE) 2,815 ? -27.2°
